| time (UTC) | temp F | wind direction | speed MPH | gust MPH | rain 1hr in | rain 24hr in | rain mn in | humidity % | barometer mb |
| 20260506153203 | 61 | 250 | 10.0 | 0.0 | 0.00 | 0.00 | 0.00 | 67 | 1005.0 |
| 20260506151818 | 61 | 230 | 2.0 | 0.0 | 0.00 | 0.00 | 0.00 | 67 | |
| 20260506150202 | 61 | 280 | 8.0 | 0.0 | 0.00 | 0.00 | 0.00 | 72 | 1005.0 |
| 20260506145305 | 61 | 280 | 9.0 | 0.0 | 0.00 | 0.00 | 0.00 | 72 | 1005.0 |
| 20260506144003 | 61 | 190 | 9.0 | 0.0 | 0.00 | 0.00 | 0.00 | 72 | 1005.0 |
| 20260506143203 | 63 | 190 | 8.0 | 20.0 | 0.00 | 0.00 | 0.00 | 67 | 1005.0 |
| 20260506141818 | 66 | 270 | 2.0 | 0.0 | 0.00 | 0.00 | 0.00 | 55 | |
| 20260506140203 | 66 | 0 | 2.0 | 0.0 | 0.00 | 0.00 | 0.00 | 59 | 1005.0 |
| 20260506134802 | 66 | 0 | 2.0 | 0.0 | 0.00 | 0.00 | 0.00 | 52 | 1005.0 |
| 20260506133203 | 68 | 160 | 3.0 | 0.0 | 0.00 | 0.00 | 0.00 | 49 | 1005.0 |
| 20260506131818 | 68 | 210 | 2.0 | 0.0 | 0.00 | 0.00 | 0.00 | 49 | |
| 20260506130203 | 68 | 200 | 5.0 | 0.0 | 0.00 | 0.00 | 0.00 | 52 | 1006.0 |
| 20260506123202 | 68 | 220 | 7.0 | 0.0 | 0.00 | 0.00 | 0.00 | 56 | 1006.0 |
| 20260506121818 | 66 | 260 | 7.0 | 0.0 | 0.00 | 0.00 | 0.00 | 59 | |
| 20260506120203 | 68 | 0 | 5.0 | 0.0 | 0.00 | 0.00 | 0.00 | 56 | 1006.0 |
| 20260506113202 | 64 | 230 | 8.0 | 0.0 | 0.00 | 0.00 | 0.00 | 59 | 1006.0 |
| 20260506111804 | 64 | 210 | 7.0 | 0.0 | 0.00 | 0.00 | 0.00 | 63 | |
| 20260506110203 | 64 | 200 | 10.0 | 0.0 | 0.00 | 0.00 | 0.00 | 63 | 1007.0 |
| 20260506103202 | 64 | 220 | 10.0 | 0.0 | 0.00 | 0.00 | 0.00 | 67 | 1007.0 |
| 20260506102017 | 63 | 230 | 12.0 | 0.0 | 0.00 | 0.00 | 0.00 | 63 | |
| 20260506100203 | 63 | 230 | 12.0 | 0.0 | 0.00 | 0.00 | 0.00 | 63 | 1007.0 |
| 20260506093203 | 63 | 230 | 12.0 | 0.0 | 0.00 | 0.00 | 0.00 | 67 | 1007.0 |
| 20260506091804 | 61 | 220 | 14.0 | 0.0 | 0.00 | 0.00 | 0.00 | 63 | |
| 20260506090203 | 61 | 230 | 12.0 | 0.0 | 0.00 | 0.00 | 0.00 | 67 | 1007.0 |
| 20260506083202 | 59 | 240 | 14.0 | 0.0 | 0.00 | 0.00 | 0.00 | 72 | 1007.0 |
| 20260506081802 | 59 | 230 | 14.0 | 0.0 | 0.00 | 0.00 | 0.00 | 77 | |
| 20260506080203 | 59 | 230 | 12.0 | 0.0 | 0.00 | 0.00 | 0.00 | 77 | 1007.0 |
| 20260506073202 | 57 | 230 | 10.0 | 0.0 | 0.00 | 0.00 | 0.00 | 82 | 1007.0 |
| 20260506071804 | 57 | 240 | 14.0 | 0.0 | 0.00 | 0.00 | 0.00 | 82 | |
| 20260506070203 | 57 | 230 | 10.0 | 0.0 | 0.00 | 0.00 | 0.00 | 82 | 1006.0 |
| 20260506061805 | 55 | 230 | 12.0 | 0.0 | 0.00 | 0.00 | 0.00 | 82 | |
| 20260506060203 | 55 | 220 | 10.0 | 0.0 | 0.00 | 0.00 | 0.00 | 87 | 1006.0 |
| 20260506050203 | 54 | 190 | 8.0 | 0.0 | 0.00 | 0.00 | 0.00 | 87 | 1006.0 |
| 20260506043203 | 52 | 200 | 7.0 | 0.0 | 0.00 | 0.00 | 0.00 | 93 | 1006.0 |
| 20260506042009 | 50 | 200 | 7.0 | 0.0 | 0.00 | 0.00 | 0.00 | 93 | |
| 20260506040203 | 50 | 220 | 8.0 | 0.0 | 0.00 | 0.00 | 0.00 | 100 | 1006.0 |
| 20260506033202 | 50 | 220 | 7.0 | 0.0 | 0.00 | 0.00 | 0.00 | 100 | 1006.0 |
| 20260506031805 | 52 | 210 | 7.0 | 0.0 | 0.00 | 0.00 | 0.00 | 93 | |
| 20260506030204 | 52 | 220 | 8.0 | 0.0 | 0.00 | 0.00 | 0.00 | 93 | 1006.0 |
| 20260506023202 | 54 | 220 | 9.0 | 0.0 | 0.00 | 0.00 | 0.00 | 93 | 1006.0 |
| 20260506021804 | 54 | 240 | 12.0 | 0.0 | 0.00 | 0.00 | 0.00 | 93 | |
| 20260506020204 | 54 | 240 | 8.0 | 0.0 | 0.00 | 0.00 | 0.00 | 93 | 1006.0 |
| 20260506013202 | 54 | 240 | 9.0 | 0.0 | 0.00 | 0.00 | 0.00 | 93 | 1006.0 |
| 20260506011909 | 54 | 230 | 12.0 | 0.0 | 0.00 | 0.00 | 0.00 | 93 | |
| 20260506010201 | 54 | 230 | 12.0 | 0.0 | 0.00 | 0.00 | 0.00 | 93 | 1006.0 |
| 20260506003202 | 54 | 230 | 7.0 | 0.0 | 0.00 | 0.00 | 0.00 | 100 | 1006.0 |
| 20260506001801 | 54 | 210 | 5.0 | 0.0 | 0.00 | 0.00 | 0.00 | 93 | |
| 20260506000204 | 54 | 210 | 5.0 | 0.0 | 0.00 | 0.00 | 0.00 | 100 | 1006.0 |
| 20260505233202 | 54 | 180 | 5.0 | 0.0 | 0.00 | 0.00 | 0.00 | 100 | 1006.0 |
| 20260505231802 | 54 | 230 | 2.0 | 0.0 | 0.00 | 0.00 | 0.00 | 99 | |
| 20260505230203 | 54 | 250 | 3.0 | 0.0 | 0.00 | 0.00 | 0.00 | 100 | 1006.0 |
| 20260505223202 | 54 | 350 | 3.0 | 0.0 | 0.00 | 0.00 | 0.00 | 100 | 1006.0 |
| 20260505221800 | 54 | 310 | 7.0 | 0.0 | 0.00 | 0.00 | 0.00 | 99 | |
| 20260505220203 | 54 | 310 | 10.0 | 0.0 | 0.00 | 0.00 | 0.00 | 100 | 1006.0 |
| 20260505213202 | 55 | 280 | 16.0 | 0.0 | 0.00 | 0.00 | 0.00 | 93 | 1007.0 |
| 20260505211834 | 57 | 270 | 16.0 | 0.0 | 0.00 | 0.00 | 0.00 | 93 | |
| 20260505210203 | 57 | 270 | 16.0 | 0.0 | 0.00 | 0.00 | 0.00 | 93 | 1006.0 |
| 20260505205402 | 57 | 260 | 15.0 | 0.0 | 0.00 | 0.00 | 0.00 | 93 | 1006.0 |
| 20260505205103 | 57 | 250 | 15.0 | 0.0 | 0.00 | 0.00 | 0.00 | 93 | 1006.0 |
| 20260505203503 | 61 | 280 | 10.0 | 0.0 | 0.00 | 0.00 | 0.00 | 77 | 1005.0 |
| 20260505203203 | 61 | 280 | 12.0 | 0.0 | 0.00 | 0.00 | 0.00 | 77 | 1005.0 |
| 20260505202202 | 63 | 290 | 10.0 | 0.0 | 0.00 | 0.00 | 0.00 | 67 | 1005.0 |
| 20260505202005 | 63 | 290 | 10.0 | 0.0 | 0.00 | 0.00 | 0.00 | 63 | 1005.0 |
| 20260505201817 | 63 | 240 | 14.0 | 0.0 | 0.00 | 0.00 | 0.00 | 59 | |
| 20260505201303 | 63 | 270 | 10.0 | 0.0 | 0.00 | 0.00 | 0.00 | 63 | 1005.0 |
| 20260505200203 | 63 | 240 | 15.0 | 0.0 | 0.00 | 0.00 | 0.00 | 63 | 1005.0 |
| 20260505195102 | 61 | 250 | 5.0 | 0.0 | 0.00 | 0.00 | 0.00 | 67 | 1005.0 |
| 20260505193202 | 63 | 10 | 6.0 | 0.0 | 0.00 | 0.00 | 0.00 | 63 | 1004.0 |
| 20260505191835 | 64 | 50 | 9.0 | 0.0 | 0.00 | 0.00 | 0.00 | 55 | |
| 20260505190203 | 64 | 50 | 7.0 | 0.0 | 0.00 | 0.00 | 0.00 | 55 | 1004.0 |
| 20260505183202 | 64 | 20 | 6.0 | 0.0 | 0.00 | 0.00 | 0.00 | 55 | 1004.0 |
| 20260505181819 | 66 | 110 | 9.0 | 0.0 | 0.00 | 0.00 | 0.00 | 52 | |
| 20260505180202 | 66 | 110 | 10.0 | 0.0 | 0.00 | 0.00 | 0.00 | 52 | 1004.0 |
| 20260505173203 | 66 | 110 | 13.0 | 0.0 | 0.00 | 0.00 | 0.00 | 52 | 1004.0 |
| 20260505171802 | 68 | 130 | 14.0 | 0.0 | 0.00 | 0.00 | 0.00 | 49 | |
| 20260505170204 | 68 | 130 | 13.0 | 0.0 | 0.00 | 0.00 | 0.00 | 49 | 1005.0 |
| 20260505163202 | 72 | 80 | 7.0 | 0.0 | 0.00 | 0.00 | 0.00 | 46 | 1004.0 |
| 20260505161901 | 72 | 80 | 9.0 | 0.0 | 0.00 | 0.00 | 0.00 | 43 | |
| 20260505160203 | 72 | 90 | 8.0 | 0.0 | 0.00 | 0.00 | 0.00 | 43 | 1004.0 |